This is the latest recevied weather packets stored in our database for station/object OK0EK-11. If no packets are shown the sender has not sent any weather packets the latest 10 day(s).
| Time | Temp. | Humidity | Pressure | Rain* | Wind** | Luminosity | Snow |
|---|---|---|---|---|---|---|---|
| 1778146211 | 13.33° C | 76% | 1014.7 hPa | - | - | - | - |
| 1778145612 | 13.33° C | 76% | 1014.4 hPa | - | - | - | - |
| 1778145012 | 13.33° C | 74% | 1014.2 hPa | - | - | - | - |
| 1778144413 | 13.33° C | 75% | 1014.2 hPa | - | - | - | - |
| 1778143814 | 13.33° C | 76% | 1014.1 hPa | - | - | - | - |
| 1778143214 | 12.22° C | 80% | 1014 hPa | - | - | - | - |
| 1778142615 | 12.78° C | 78% | 1014 hPa | - | - | - | - |
| 1778142015 | 13.33° C | 77% | 1013.8 hPa | - | - | - | - |
| 1778141416 | 12.78° C | 80% | 1013.7 hPa | - | - | - | - |
| 1778140816 | 11.67° C | 84% | 1013.7 hPa | - | - | - | - |
| 1778140216 | 11.11° C | 85% | 1013.6 hPa | - | - | - | - |
| 1778139617 | 11.11° C | 86% | 1013.6 hPa | - | - | - | - |
| 1778139018 | 10.56° C | 87% | 1013.5 hPa | - | - | - | - |
| 1778138418 | 10.56° C | 85% | 1013.5 hPa | - | - | - | - |
| 1778137819 | 11.11° C | 86% | 1013.4 hPa | - | - | - | - |
| 1778137220 | 10.56° C | 87% | 1013.2 hPa | - | - | - | - |
| 1778136621 | 10.56° C | 88% | 1013.1 hPa | - | - | - | - |
| 1778136021 | 10° C | 88% | 1013.2 hPa | - | - | - | - |
| 1778135422 | 10° C | 88% | 1013 hPa | - | - | - | - |
| 1778134822 | 10° C | 90% | 1012.7 hPa | - | - | - | - |
| 1778134230 | 9.44° C | 92% | 1012.7 hPa | - | - | - | - |
| 1778134223 | 9.44° C | 92% | 1012.7 hPa | - | - | - | - |
| 1778133631 | 8.89° C | 93% | 1012.4 hPa | - | - | - | - |
| 1778133624 | 8.89° C | 93% | 1012.4 hPa | - | - | - | - |
| 1778133024 | 8.89° C | 93% | 1012.2 hPa | - | - | - | - |
* Rain since midnight (hover to see other rain measurements)
** Current wind speed in m/s (hover to see current wind gust speed)